Starlink 32558

operational
NORAD ID: 62169 Int'l Des: 2024-225 Owner: SPXS Country: US Constellation: starlink
LEOCIRCULAR

About Starlink 32558

Description loading...

Live Position

Loading 3D Globe...

Upcoming Passes

Altitude History

Altitude vs Time

uPlot chart will show altitude changes over time

Two-Line Element Set

1 62169U 24225G 26035.04276649 -.00500883 00000-0 -45466-1 0 9995
2 62169 69.9994 249.3456 0005517 231.9168 128.1494 14.97550079 64830
Epoch: Feb 4, 2026 • Age: 11 hours

Current Status

Altitude 580.7 km
Velocity 7.57 km/s
Sub-Earth Point 12.00°N, 66.7°W
Launch Date Nov 30, 2024
Age 1.1 years
Type internet

Technical Details

Classification Payload
Mass 730.00 kg
Dry Mass 700.00 kg
Total Mass 730.00 kg
Length 0.30 m
Diameter 4.10 m
Span 29.00 m
Shape Box + pan
Manufacturer SPXS
Bus Type Starlink V2M
Phase Status In Orbit
Owner/State SPXS/US

Large Constellations

Loading constellations...